Zurück zum Katalog

YZ-1 R/B

AktivMEO
NORAD 41316·ROCKET BODY·🇨🇳 China

Gestartet Feb 1, 2016 von Xichang Satellite Launch Center

Loading…

Nächste Überflüge (nächste 24 Stunden)

TLE

AlterndSource: Space-Track

Epoche: Aug 30, 2026, 02:57 UTC

1 41316U 16006B   26242.12360775  .00000032  00000-0  00000+0 0  9999
2 41316  56.3369  95.5981 1487166  76.5229 299.7191  1.60145653 61860

Verfolge YZ-1 R/B in Echtzeit mit AllMySat

Download on the App Store